Wind_Speed
8 8 8 7 7 7 7 7 6 6 6 6 5 5 6 6 6 6 7 7 7 8 8 9 9 10 10 11 12 13 14 15 16 16 17 16 12 8 4 4 4 1 1 2 1 2 3 3 3 2 1 1 1 1 2 1 2 2 2 3 1 3 4 5 7 5 3 3 5 7 8 3 6 10 11 10 10 14 16 20 19 15 16 15 15 16 18 19
9 9 9 9 9 8 8 8 8 7 7 7 7 7 8 8 8 8 9 9 9 10 10 10 11 11 11 12 13 15 16 16 17 17 15 8 3 5 8 6 2 1 2 2 2 1 3 3 4 3 2 2 1 1 2 2 3 2 3 2 3 5 5 5 7 6 4 5 8 11 10 5 7 11 12 8 8 11 14 22 22 18 18 16 16 16 16 16
10 10 10 10 10 10 10 9 9 9 9 9 9 9 9 9 10 10 10 10 11 11 12 12 12 12 13 14 15 16 17 18 18 12 3 5 10 10 7 2 3 4 3 3 3 3 5 5 5 4 3 2 1 1 2 2 3 1 3 1 6 6 5 6 7 8 9 9 9 11 9 6 10 12 10 7 9 9 9 17 18 19 24 23 22 21 19 18
11 11 11 11 11 11 11 10 10 10 10 10 11 11 11 11 11 11 11 12 12 12 13 13 14 14 14 15 15 15 15 16 11 2 8 10 10 7 1 5 7 7 5 4 5 7 8 7 5 4 4 1 1 2 2 4 4 2 4 4 5 3 2 8 9 11 12 9 8 10 9 10 13 11 9 9 10 7 10 17 17 22 29 28 25 22 20 19
13 12 12 12 12 12 11 11 11 11 11 12 11 12 12 12 12 12 12 12 12 13 14 14 15 15 15 15 14 12 10 8 1 8 9 9 7 5 5 8 10 9 6 4 6 8 10 8 5 5 4 2 2 2 3 5 6 3 5 7 5 3 3 10 11 12 13 9 9 11 9 9 10 9 12 11 7 10 19 25 25 27 30 28 25 21 19 17
14 13 13 13 13 12 12 12 12 12 12 12 12 12 12 13 13 13 13 13 13 14 14 14 14 14 14 13 12 10 5 2 3 7 8 9 8 9 8 10 10 10 7 5 7 9 10 9 6 6 4 1 3 4 2 4 7 4 4 6 8 7 6 13 15 14 15 13 12 11 9 11 9 11 17 15 17 24 30 30 29 27 23 22 20 17 15 13
14 14 14 13 13 13 13 13 13 13 13 13 13 13 13 13 13 13 14 13 14 14 14 14 13 13 12 11 10 9 9 8 6 7 10 11 11 11 11 12 9 8 6 5 8 9 10 10 8 7 4 0 3 6 2 2 7 5 4 5 7 9 8 13 15 15 17 16 18 16 13 14 11 10 13 20 31 32 29 27 24 18 15 17 16 13 11 10
14 14 14 13 13 13 13 13 13 13 13 14 14 14 14 14 13 13 13 13 13 12 12 12 11 11 10 10 8 7 11 13 9 9 12 12 14 14 13 11 8 7 5 5 8 9 10 11 11 8 4 2 4 4 2 2 4 5 5 5 5 8 11 14 16 19 21 20 21 17 14 18 17 11 10 25 33 24 17 18 15 13 14 15 13 10 9 8
14 14 14 13 13 13 14 14 14 14 14 14 14 14 13 13 13 12 12 12 12 11 12 11 11 11 9 9 7 6 11 12 8 9 10 12 14 14 13 10 8 7 5 5 8 10 10 11 11 9 5 4 4 3 2 1 3 5 5 5 6 11 14 16 19 22 21 17 15 11 13 19 16 8 10 20 18 9 9 11 12 14 15 13 10 10 9 9
14 15 14 14 14 14 14 14 14 14 13 13 13 13 13 13 12 12 12 11 11 12 12 12 12 11 10 10 6 5 9 10 8 9 8 10 11 11 11 10 9 7 6 7 8 11 11 10 9 9 6 3 4 4 2 2 2 3 3 6 9 13 16 16 18 24 21 14 12 9 12 16 9 1 7 14 8 7 11 11 13 14 12 8 7 7 8 9
15 15 15 14 14 14 14 14 14 14 14 14 13 14 13 13 13 12 12 12 12 12 12 12 12 12 11 11 9 8 10 9 9 10 9 10 9 9 9 9 8 7 7 7 9 11 12 11 7 6 5 2 3 3 4 4 3 4 6 8 11 11 16 18 16 21 16 8 7 8 9 11 2 3 10 16 11 12 13 12 12 10 7 5 4 4 5 7
16 16 15 15 15 15 15 15 14 14 14 14 14 14 14 13 13 12 12 12 12 12 13 12 12 12 11 12 15 15 14 13 13 13 13 12 11 10 10 9 9 8 8 9 10 11 13 12 9 7 5 3 2 1 2 3 4 5 4 5 10 8 11 16 11 8 4 2 4 4 4 8 2 7 14 14 11 12 13 11 10 7 4 2 2 2 3 4
17 16 16 16 16 15 15 15 15 14 14 14 14 14 13 13 13 12 12 12 12 12 12 12 11 11 10 11 15 15 13 13 14 13 14 14 11 11 11 11 11 10 9 10 11 11 12 12 10 9 7 4 2 1 2 3 5 6 3 1 6 7 7 9 2 1 1 3 5 5 2 8 6 11 12 10 9 12 14 10 8 5 2 2 3 2 2 1
17 16 16 15 15 15 15 14 14 14 14 14 13 13 13 13 12 12 12 12 12 12 11 11 11 10 10 12 14 14 14 14 14 14 14 14 13 11 11 11 10 10 9 10 11 10 10 10 9 8 7 5 3 2 3 5 3 3 2 1 3 2 5 7 1 1 2 3 6 7 2 6 8 12 11 9 12 16 14 7 5 3 4 4 4 4 3 3
16 16 15 15 15 14 14 14 14 14 13 13 13 13 13 12 12 12 12 12 12 11 11 11 11 10 10 13 14 13 14 14 14 15 14 14 14 12 10 8 8 8 9 10 11 10 8 7 7 5 4 5 3 0 3 4 3 2 1 3 3 2 5 10 6 3 2 1 4 6 2 5 9 12 11 11 16 20 12 5 6 5 6 6 6 6 5 6
16 15 15 14 14 14 13 13 13 14 13 13 13 13 12 12 12 12 11 12 12 12 11 10 11 9 7 11 12 11 12 12 11 12 12 13 12 10 8 6 6 8 9 9 9 9 8 6 5 4 3 3 2 3 3 4 4 3 1 4 3 3 3 7 5 0 1 1 1 2 1 5 6 12 16 15 17 15 7 8 8 8 8 9 8 8 8 8
15 14 14 13 13 13 12 13 13 13 13 12 12 12 12 12 12 12 12 12 12 12 11 10 10 8 9 12 11 10 11 10 9 9 10 10 9 8 6 6 7 8 7 7 7 6 7 6 5 3 1 1 3 5 3 2 4 3 0 3 4 4 3 3 4 4 4 3 1 1 1 6 9 15 19 16 14 9 9 10 10 11 10 11 11 10 10 10
14 13 13 12 12 11 11 12 12 12 12 11 11 11 11 12 12 12 12 12 12 11 11 12 8 4 8 13 12 9 8 8 9 9 9 8 8 7 7 7 7 8 6 4 5 6 6 3 3 1 2 2 3 5 3 5 6 4 3 3 3 3 4 5 4 4 5 4 3 2 2 8 12 12 12 14 12 7 11 13 13 13 12 13 13 13 13 13
14 13 12 12 11 11 12 12 12 12 12 11 11 11 11 11 12 13 14 14 12 7 5 9 10 4 3 6 8 9 7 7 8 9 9 9 9 10 10 8 8 8 5 3 4 5 5 2 3 1 1 2 5 8 10 9 7 6 5 4 4 4 6 6 5 5 2 3 5 4 5 9 11 8 9 13 9 10 14 14 15 14 15 15 16 16 16 15
13 13 13 12 12 12 12 13 13 13 12 11 11 10 10 8 6 8 12 15 17 15 12 11 12 12 9 5 4 6 7 7 7 9 11 10 10 11 11 8 6 5 3 3 3 3 5 3 2 5 8 10 12 11 8 3 5 4 3 2 4 5 7 5 5 5 1 1 6 4 5 8 9 5 8 10 9 13 12 14 15 15 16 17 17 18 17 17
14 14 13 13 12 12 13 14 14 13 12 12 11 9 8 6 3 4 7 12 17 20 21 20 18 19 19 13 9 8 7 7 8 10 11 11 12 10 9 7 4 2 2 3 3 2 4 4 7 11 10 8 7 6 4 2 2 1 1 2 5 5 7 7 4 4 1 3 4 1 1 8 7 3 7 8 9 10 9 12 13 14 16 17 17 18 18 18
15 15 14 14 13 13 14 14 14 14 13 12 11 9 8 8 8 8 7 8 14 18 20 22 23 25 25 22 20 17 11 7 8 11 12 13 14 10 7 6 3 2 1 3 4 1 1 5 12 12 5 3 3 4 5 5 4 2 2 2 4 4 5 7 4 3 2 3 4 2 2 8 5 5 8 10 10 9 10 12 11 13 16 16 17 19 19 19
16 15 15 14 13 14 14 15 15 14 13 12 11 10 10 9 9 10 8 6 12 17 18 21 24 27 28 26 25 22 17 12 10 13 14 14 15 12 9 7 4 2 2 3 5 3 3 6 10 8 5 5 1 3 6 3 1 3 4 2 4 3 1 4 4 4 2 1 2 1 3 6 2 4 7 10 11 13 15 14 13 14 15 16 17 19 20 21
17 16 16 15 14 15 15 15 15 13 12 12 11 10 9 8 8 7 6 4 7 11 13 17 19 22 25 23 21 19 19 16 11 11 17 18 16 11 9 8 5 3 3 6 7 5 7 6 1 2 5 7 3 3 6 4 2 3 5 5 5 4 5 6 4 4 2 2 1 1 3 5 2 1 2 6 9 12 12 13 14 13 14 15 17 20 21 21
18 17 16 16 15 16 15 15 15 13 12 12 11 10 8 7 5 4 3 2 4 6 7 11 12 13 16 16 15 14 13 14 12 10 15 21 19 10 5 8 6 4 5 6 5 5 9 8 2 4 3 5 5 3 4 6 2 4 5 10 10 9 7 5 3 5 3 3 3 3 3 5 3 1 4 3 5 6 7 10 11 11 12 15 17 19 19 20
19 19 17 17 16 16 15 14 14 13 13 12 10 9 8 6 3 1 1 2 3 4 3 6 7 6 9 9 10 10 5 7 12 13 15 20 20 11 5 5 4 3 5 6 3 3 5 4 4 4 4 4 3 2 5 7 4 3 4 8 9 7 5 4 1 2 0 3 3 3 1 5 5 1 5 5 4 4 4 7 7 9 11 13 15 16 17 20
20 19 18 18 17 17 16 12 12 13 12 11 10 10 8 6 5 2 3 3 4 4 5 5 6 6 7 9 13 12 3 3 8 11 17 20 18 12 6 3 3 2 4 5 1 3 2 0 1 5 4 4 3 4 6 7 6 2 4 4 5 5 5 4 4 3 2 3 4 3 2 4 6 3 3 6 6 4 3 4 4 7 10 11 13 14 16 19
22 20 19 19 19 21 19 13 12 13 12 9 9 12 9 8 7 4 3 2 3 4 5 4 5 6 8 12 15 8 3 6 6 6 14 18 15 9 5 5 6 4 3 6 3 4 1 1 2 6 4 4 5 4 6 10 5 5 3 6 6 6 5 4 5 2 1 2 5 3 1 3 6 3 1 4 4 2 4 3 3 6 9 10 12 13 16 19
24 22 21 20 20 21 19 16 15 14 12 10 11 13 11 10 8 5 2 3 2 3 3 4 6 6 9 12 9 4 4 4 2 5 11 13 12 5 2 6 6 4 1 3 4 4 1 1 3 7 5 5 4 2 4 8 4 3 5 6 5 5 5 4 4 3 2 2 4 5 4 2 5 3 2 2 3 4 5 3 4 8 9 10 12 13 16 18
26 25 23 21 21 22 21 21 21 16 13 13 14 14 14 12 7 3 4 5 1 2 3 5 5 5 9 8 2 1 3 1 3 9 8 7 9 4 3 4 4 4 1 3 2 4 1 0 1 4 4 5 5 2 2 3 2 5 6 5 5 5 5 4 2 4 2 4 4 7 8 6 4 4 3 4 2 4 7 5 5 9 11 11 12 14 16 18
29 28 26 24 25 25 24 26 25 20 17 17 16 17 16 8 3 4 7 2 2 2 4 3 2 4 7 5 2 2 1 1 5 9 5 3 5 3 3 3 2 3 3 5 3 5 4 1 2 2 3 5 7 4 3 3 4 5 4 4 3 4 4 4 4 4 0 5 3 3 4 5 5 5 2 2 2 2 7 8 9 11 14 14 13 14 16 18
31 30 28 27 28 28 28 29 24 22 23 21 20 21 15 4 3 5 3 2 1 3 4 3 2 4 5 3 3 5 3 2 4 6 4 3 4 3 2 4 4 2 3 3 3 5 4 4 3 1 2 5 6 4 3 4 5 5 4 5 3 3 3 3 3 0 3 6 3 1 1 2 6 5 1 3 3 3 5 11 16 18 19 18 17 16 17 18
33 32 32 31 31 32 31 29 26 25 26 25 23 18 8 3 6 5 3 2 2 2 3 3 3 4 6 3 2 4 3 2 5 4 3 3 3 4 3 3 5 3 0 3 1 2 3 5 2 1 2 6 8 4 1 1 1 4 4 4 3 1 1 3 4 2 4 6 3 1 2 1 5 2 1 4 5 6 6 13 22 24 24 22 20 18 18 18
33 33 35 33 32 34 32 30 30 27 26 26 21 9 3 5 4 5 6 4 1 1 2 3 5 5 5 3 3 4 3 2 5 5 3 3 2 3 4 4 5 3 3 3 1 3 2 5 3 4 2 6 8 5 5 5 3 4 4 5 4 4 4 4 4 3 4 4 3 2 1 3 3 1 2 4 4 3 4 14 20 22 23 22 20 19 18 18
35 35 35 32 31 33 31 30 31 27 27 27 16 4 6 6 1 4 6 4 1 1 2 3 5 5 2 2 2 4 3 2 4 5 3 4 3 3 4 5 6 5 4 3 2 2 2 5 6 2 1 6 6 3 6 6 2 2 3 4 2 4 5 3 3 5 2 3 3 2 3 4 4 1 3 1 3 5 8 15 19 20 20 20 19 19 19 19
36 34 32 31 32 31 29 30 28 26 29 25 10 4 8 3 2 4 3 3 4 4 4 2 3 3 2 2 1 2 1 1 4 4 3 3 3 4 3 3 7 9 6 4 3 2 1 5 5 3 2 2 2 2 3 3 2 1 2 3 4 4 6 2 2 1 3 2 4 2 2 4 1 0 3 3 3 4 6 10 16 19 19 19 20 20 20 19
33 31 30 31 32 30 30 30 26 27 30 20 6 7 5 2 4 4 2 3 4 5 6 2 1 3 3 2 2 3 1 2 3 3 3 3 3 4 4 3 5 11 10 5 2 3 2 4 5 1 1 2 2 3 3 3 3 4 2 5 3 2 4 3 1 3 2 3 4 0 3 3 2 2 2 2 2 3 3 6 11 15 17 19 21 21 20 19
30 29 28 29 30 29 29 27 26 31 27 12 7 9 4 3 5 3 3 4 4 4 5 4 3 2 3 3 2 3 2 3 3 3 3 2 3 4 5 2 2 7 9 5 1 2 2 2 5 1 2 1 3 3 2 4 2 4 3 2 3 2 1 2 2 2 2 4 4 3 3 3 4 4 2 4 8 8 6 6 8 12 17 20 21 21 20 19
27 23 19 23 27 26 26 26 29 31 19 7 11 9 2 3 3 3 6 5 3 3 3 3 2 1 2 4 3 2 2 3 4 3 2 2 3 3 4 3 2 1 5 7 4 2 2 1 4 2 0 1 3 2 2 2 2 2 1 1 1 2 4 2 2 3 3 4 4 5 5 4 5 5 6 9 11 10 10 8 9 14 20 23 23 22 21 21
22 14 10 18 23 22 22 24 26 22 10 4 9 5 1 2 2 4 7 4 3 3 2 2 2 2 3 3 2 2 1 3 4 3 2 2 2 2 1 2 3 2 1 5 3 0 2 1 3 2 3 0 1 2 6 6 3 2 2 2 2 1 1 1 1 2 3 3 2 3 6 6 4 3 6 8 8 11 14 13 12 18 24 26 25 25 23 22
18 7 4 15 20 19 19 17 12 7 3 2 2 2 1 1 0 3 7 5 2 2 2 3 3 3 4 3 3 2 1 1 3 2 2 2 2 2 1 1 4 4 3 4 2 2 1 2 3 1 0 2 5 4 4 7 6 5 5 5 4 3 2 2 4 1 2 2 4 4 6 7 4 2 3 5 6 12 18 16 14 20 27 27 26 25 23 21
14 3 1 12 18 20 18 9 1 2 1 2 1 2 2 0 0 2 4 5 3 2 2 2 2 3 3 3 3 3 2 1 2 3 3 4 4 4 2 1 2 4 5 3 3 3 3 3 2 3 3 5 6 4 1 3 4 5 3 3 3 3 4 4 6 3 1 1 1 2 4 5 2 2 4 5 7 13 19 19 18 23 29 29 26 25 22 20
12 5 3 10 16 19 14 3 1 0 1 1 2 1 1 1 1 1 1 3 2 2 2 1 2 3 3 3 3 3 3 3 4 5 4 4 4 2 2 3 2 3 5 2 2 2 3 3 2 4 3 2 4 4 2 1 4 3 1 1 3 3 3 4 5 3 2 2 1 1 5 4 1 3 3 2 5 10 17 21 22 26 29 28 26 23 22 21
12 8 6 10 15 15 9 2 2 4 2 0 1 2 2 1 2 2 1 2 2 3 2 0 2 4 4 2 3 4 4 4 4 5 4 3 2 1 1 2 3 3 3 2 3 4 2 1 2 2 4 4 3 3 3 3 1 2 2 1 2 3 5 3 1 3 1 4 5 4 7 5 2 3 5 3 4 7 13 21 26 28 28 27 25 23 23 23
9 5 5 11 16 14 7 2 1 2 2 3 2 2 1 2 3 6 4 3 4 5 3 2 3 5 4 2 3 4 5 5 5 2 2 1 1 1 1 1 3 4 1 2 5 6 4 2 3 4 6 8 6 4 3 2 1 1 2 3 4 5 6 4 2 3 4 3 4 4 6 5 4 3 5 4 4 4 8 17 22 23 23 23 23 23 24 25
6 2 2 7 12 12 8 5 3 2 2 3 1 2 5 2 3 6 7 7 8 8 6 4 3 3 3 3 4 5 6 6 4 2 2 3 2 2 1 2 2 4 3 4 6 5 3 1 3 6 8 8 6 5 3 2 3 3 3 4 6 5 6 5 3 4 4 1 2 6 4 3 7 4 1 3 5 5 8 15 19 19 18 18 20 22 25 27
4 2 3 5 6 8 8 8 8 4 2 5 3 2 6 6 2 4 7 7 9 11 7 4 4 5 5 6 5 5 6 5 4 3 2 3 2 2 1 2 3 4 5 5 5 4 3 1 4 5 7 5 3 3 3 2 3 4 4 6 6 4 5 6 5 5 4 3 7 10 5 5 10 9 5 6 7 6 9 16 19 20 19 19 19 20 23 25
4 3 8 8 4 4 6 8 11 8 4 5 4 1 4 6 4 4 6 4 5 9 7 3 6 10 9 7 6 4 4 4 4 5 3 2 1 0 2 1 1 3 3 4 3 4 4 3 4 3 4 4 2 4 5 4 2 3 4 7 8 6 7 7 6 6 7 6 10 9 6 7 11 8 6 8 10 10 13 17 19 19 19 19 19 19 21 23
7 3 7 11 5 2 6 10 12 11 9 6 3 3 5 7 7 5 4 3 2 7 9 6 9 12 9 8 7 6 6 6 5 5 4 2 3 3 1 2 2 2 3 3 2 3 4 3 2 3 3 2 0 2 3 3 2 3 6 10 9 6 6 7 7 8 8 8 9 8 7 9 12 8 5 8 12 13 16 18 20 20 20 19 18 20 22 23
10 7 7 9 5 2 4 7 10 9 8 7 6 7 5 6 9 6 3 5 5 4 8 11 11 8 8 9 10 11 11 8 6 5 5 4 2 3 3 3 3 2 1 2 1 1 2 2 2 4 1 2 1 1 1 1 2 4 9 13 8 2 3 8 9 7 5 7 9 9 8 12 13 7 6 10 14 14 16 20 23 23 21 19 20 21 23 24
15 13 10 7 5 4 4 4 6 5 4 7 8 7 6 8 11 7 3 8 11 6 7 13 12 5 5 8 11 15 15 10 9 11 12 11 9 8 6 5 7 5 2 2 2 1 2 1 2 3 2 3 3 4 3 2 1 5 14 17 9 5 7 8 6 6 8 10 10 8 8 11 9 3 5 9 12 14 17 21 22 22 20 20 22 23 23 23
18 16 14 8 3 6 7 3 4 5 6 8 11 9 8 10 9 9 5 8 12 12 10 12 11 5 4 8 14 19 18 13 13 15 15 14 11 10 9 9 10 8 5 4 2 0 4 3 2 3 4 3 2 5 4 4 2 9 13 11 10 11 11 6 3 8 12 9 7 8 9 9 7 2 4 7 9 12 16 19 20 21 21 21 22 22 21 22
Wind_Direction
220 221 222 224 224 226 225 227 229 230 234 237 242 242 243 249 252 253 253 256 260 263 266 271 276 282 288 293 298 300 303 305 303 303 302 299 290 275 223 180 164 169 338 340 316 251 226 210 184 181 217 192 178 181 136 130 130 101 86 100 227 197 202 190 187 192 175 273 281 306 326 293 284 304 306 306 278 278 288 287 289 286 287 293 300 306 303 301
221 222 223 224 225 226 226 228 230 231 235 238 240 242 245 249 252 255 258 262 267 268 271 274 278 282 286 292 296 300 303 304 303 302 300 293 227 155 145 141 130 286 295 302 301 255 217 199 182 185 204 183 158 163 168 185 150 116 97 122 231 203 212 204 193 206 208 275 283 296 309 277 275 304 312 302 278 293 299 298 304 307 315 325 327 326 319 311
223 224 225 226 227 229 231 232 233 236 240 242 245 248 250 253 256 258 261 266 270 273 275 276 279 282 286 290 295 301 305 306 306 302 271 147 136 132 130 109 356 315 280 269 262 216 199 195 192 198 204 189 170 176 179 190 181 156 107 161 246 218 238 257 241 249 260 277 284 297 306 290 298 309 304 296 299 300 283 293 304 313 322 332 333 331 326 322
227 228 230 231 233 235 237 239 241 244 247 248 251 253 256 259 259 261 263 267 270 273 275 277 279 282 286 290 296 301 307 313 306 224 153 148 147 148 126 345 343 330 301 263 244 218 207 202 202 200 191 199 232 220 213 201 195 175 153 190 234 193 241 272 274 286 288 284 270 288 307 306 311 313 298 308 320 300 275 291 301 307 316 324 328 331 329 328
232 234 235 237 238 240 243 245 247 249 252 254 255 258 260 261 263 264 266 269 271 274 276 279 281 284 288 290 295 298 312 332 246 163 168 179 190 226 288 325 326 324 313 261 232 221 213 205 199 188 185 215 177 192 237 202 181 175 213 229 238 188 228 278 289 297 295 292 283 294 308 304 309 301 291 298 290 273 286 298 303 306 312 318 323 328 330 330
236 237 238 239 241 243 245 248 250 252 254 256 257 260 261 263 265 266 268 271 272 274 276 277 280 282 285 287 292 292 291 304 191 184 202 217 236 258 283 306 310 313 308 255 226 221 216 205 197 190 182 214 181 193 236 193 188 210 257 247 250 240 243 278 288 289 288 289 288 292 295 295 299 293 292 282 266 277 291 298 301 307 314 319 325 331 334 339
240 240 241 242 243 245 247 249 251 252 254 257 258 261 263 265 267 268 270 271 271 272 273 274 277 279 282 284 286 283 262 258 251 225 231 242 252 263 279 291 294 302 297 247 227 222 218 207 203 196 171 113 202 207 233 210 199 205 266 260 261 264 262 280 288 288 286 282 282 285 286 284 278 284 295 282 278 287 298 301 303 313 324 328 335 340 345 352
243 245 246 247 249 250 252 253 254 256 258 260 262 264 266 267 268 270 271 271 271 271 272 274 276 277 281 282 282 276 261 266 267 242 242 246 252 263 273 277 279 289 288 246 230 223 222 214 208 202 185 216 206 204 224 266 220 194 239 268 282 287 285 291 292 288 285 282 285 286 275 273 274 274 277 279 285 296 303 306 314 326 333 338 343 346 351 349
247 250 250 251 253 254 255 256 257 258 260 262 264 265 267 268 269 270 270 271 273 273 275 276 277 278 280 279 275 271 267 271 270 251 247 248 252 258 260 264 268 274 278 256 231 220 222 218 215 214 219 227 207 210 158 164 248 206 220 267 287 292 294 296 290 286 286 283 285 282 273 280 285 282 268 275 286 306 301 306 324 333 340 348 342 333 334 334
251 252 253 253 253 254 256 257 258 259 260 261 262 263 264 265 266 268 269 271 272 273 276 276 277 278 278 274 254 246 271 272 266 260 255 254 254 252 249 253 260 261 269 264 239 226 220 219 222 218 230 233 192 209 178 162 254 241 261 277 272 283 291 289 283 284 287 287 278 253 265 282 283 149 261 270 284 301 302 321 333 340 351 353 335 321 325 328
252 252 252 251 251 252 254 255 257 258 259 260 261 263 264 265 267 268 269 270 271 272 274 274 276 274 274 268 233 231 270 272 265 266 262 260 256 253 251 247 247 245 255 266 253 236 222 221 222 207 222 218 178 217 225 226 271 301 318 301 286 298 297 284 277 282 286 292 270 227 254 285 262 157 251 266 288 304 317 345 352 358 2 347 333 328 331 331
248 250 250 250 250 251 252 253 255 257 259 260 262 264 266 268 270 271 271 271 270 271 272 272 273 271 272 264 247 252 271 271 268 269 265 266 259 252 249 241 239 245 260 268 258 241 227 224 222 217 228 200 176 251 238 257 306 308 331 314 301 336 314 283 274 277 265 237 252 192 278 301 223 216 254 276 300 313 333 4 15 19 9 2 26 356 351 339
245 248 249 249 250 251 251 252 253 255 257 259 262 264 266 269 270 270 270 270 270 269 272 272 271 273 269 261 261 267 270 265 265 265 264 264 258 246 240 240 247 258 264 257 248 241 231 225 220 225 233 212 191 217 261 304 318 302 336 347 308 350 319 282 270 79 336 259 224 156 260 288 257 244 265 310 332 337 352 14 22 28 55 70 78 60 52 11
243 245 246 247 248 249 250 251 253 254 256 258 260 262 264 266 267 267 268 269 270 269 270 271 273 275 263 260 271 273 266 262 261 258 258 259 256 250 246 249 254 258 251 239 236 233 226 220 219 223 230 229 224 240 302 335 337 301 322 9 332 331 279 292 359 162 319 297 201 162 209 265 272 280 303 343 344 344 352 20 41 69 99 93 98 95 84 69
241 242 243 243 245 246 248 249 251 253 255 257 259 262 264 266 266 267 268 268 268 268 269 272 276 275 267 268 271 268 263 260 256 252 252 253 255 257 257 253 246 240 234 229 226 222 215 208 210 213 214 224 225 269 341 348 357 15 294 300 330 202 265 308 317 201 227 305 164 152 210 266 273 288 312 336 333 336 352 63 91 99 97 96 99 91 83 75
240 240 240 241 242 242 243 245 249 252 254 257 260 263 265 267 267 267 267 266 266 265 268 273 276 272 273 275 269 261 259 255 251 246 242 244 249 252 252 240 225 226 227 225 225 221 215 208 208 212 199 196 134 87 40 354 332 356 208 247 267 205 262 318 325 235 119 63 122 144 235 283 282 282 300 324 335 343 33 93 96 93 86 88 86 83 86 82
237 237 238 240 240 241 242 244 249 252 256 259 263 267 270 270 268 267 264 262 263 264 267 271 275 275 266 264 261 255 251 243 234 229 230 234 237 235 229 219 208 210 212 212 220 214 206 202 194 205 182 100 106 99 57 313 280 304 278 226 246 212 205 285 308 339 34 67 307 344 244 260 271 281 302 334 350 10 79 99 95 89 81 82 80 79 80 77
233 234 236 237 240 241 242 246 251 255 259 263 266 268 270 269 267 265 263 261 260 265 271 257 247 283 267 250 247 247 239 222 220 224 227 222 216 208 199 197 189 184 180 183 203 193 189 185 149 166 21 44 96 117 171 229 221 224 199 202 253 246 230 244 267 303 3 6 303 330 276 262 272 286 326 356 355 30 88 101 96 90 85 83 81 78 76 74
230 232 235 236 238 239 241 246 249 253 256 259 263 263 264 267 268 264 260 254 244 238 260 231 203 198 254 248 240 233 219 207 219 228 225 213 202 195 185 182 178 175 162 152 202 188 170 125 90 124 250 199 194 182 203 217 197 199 191 172 199 244 257 239 239 260 296 322 288 261 255 267 275 292 354 0 11 72 95 97 90 89 87 84 82 78 78 77
230 232 233 235 235 236 239 243 246 249 250 252 255 258 262 265 273 270 256 246 241 238 245 239 224 229 241 254 229 216 219 225 235 229 219 210 199 189 180 177 176 181 172 159 196 181 161 168 179 209 219 215 212 206 212 196 129 146 145 165 217 238 269 254 243 269 184 205 277 248 234 266 274 304 2 4 45 73 80 86 85 87 86 85 85 82 81 80
231 233 233 232 231 231 235 239 243 246 247 247 246 248 250 240 239 275 265 256 254 250 250 251 249 249 249 248 241 242 247 244 237 222 214 204 188 181 185 177 156 195 220 144 128 111 145 190 223 223 221 217 209 198 214 235 139 140 156 266 272 243 262 264 247 281 146 166 264 300 252 272 279 346 15 32 61 55 61 84 86 88 89 88 87 86 87 89
231 231 231 229 226 227 231 236 241 243 245 245 243 242 241 240 245 264 280 279 269 259 251 250 250 251 251 248 247 251 251 242 228 212 202 190 182 186 188 168 156 200 192 116 105 85 166 227 239 234 207 112 94 136 174 212 218 212 164 229 271 245 271 288 293 329 51 158 262 340 313 280 305 26 30 47 66 63 74 91 92 94 93 91 91 92 96 99
230 227 226 226 222 223 228 233 238 241 244 244 244 241 244 248 250 261 274 282 281 270 254 247 245 247 249 248 247 245 239 236 232 215 201 190 190 195 185 166 171 169 144 174 168 162 206 243 252 240 176 156 169 117 133 145 186 187 157 173 253 249 273 284 303 343 29 163 255 275 272 279 313 65 47 52 74 79 82 91 92 94 95 96 100 101 103 103
231 226 224 222 219 221 225 231 236 240 244 243 243 240 242 248 246 263 272 267 284 277 256 245 242 244 245 245 243 237 231 231 233 219 207 200 193 192 194 184 169 162 197 202 185 193 228 234 255 81 141 167 169 119 130 142 232 242 199 199 236 241 214 228 285 330 338 357 4 25 313 288 268 168 92 74 81 78 79 86 85 88 97 104 108 107 107 105
232 230 226 219 217 220 223 230 235 240 243 241 240 235 236 242 242 270 289 287 283 273 256 240 234 238 236 236 235 223 220 226 226 218 206 202 194 180 186 186 174 202 206 183 177 227 250 240 172 74 88 133 139 157 171 166 201 294 233 209 222 232 224 229 316 358 358 339 346 29 340 294 305 199 173 134 78 66 69 75 80 91 102 108 109 108 109 107
234 233 228 220 217 218 223 233 237 238 239 237 233 225 223 220 211 279 10 13 290 244 206 206 208 213 209 209 198 178 184 226 216 207 194 196 197 182 160 174 172 207 182 155 170 233 256 249 205 200 192 159 148 235 222 174 138 313 250 204 213 222 219 219 176 70 269 260 298 45 19 280 303 241 188 155 98 79 65 63 80 100 106 111 112 112 112 109
237 234 230 224 217 214 220 228 233 231 228 230 223 208 203 193 172 116 64 348 277 195 152 171 177 178 189 180 163 154 154 188 178 192 188 187 194 187 179 181 150 192 169 136 167 240 217 339 174 188 184 182 208 255 225 159 124 255 247 152 158 176 190 194 149 145 226 263 316 12 90 271 284 268 195 140 115 91 75 70 86 110 117 119 120 120 117 113
236 234 232 227 220 220 220 220 227 227 222 221 209 197 191 178 169 129 86 284 265 128 129 162 157 164 173 170 167 157 130 141 137 185 186 183 189 185 199 208 169 182 177 141 196 255 166 96 194 161 139 186 212 236 193 155 149 248 218 112 120 144 149 123 107 109 350 6 307 295 116 262 270 276 116 131 139 166 166 164 152 139 137 133 131 128 121 117
233 232 232 229 226 225 222 222 225 226 221 211 199 194 183 163 149 103 94 237 209 101 128 153 148 157 153 157 176 165 119 133 117 161 170 179 187 174 188 203 165 155 172 143 207 256 104 177 199 149 145 204 211 265 180 164 190 209 132 94 72 75 78 73 92 95 28 339 247 217 171 231 273 273 165 176 236 213 180 184 188 165 154 146 141 135 127 120
231 232 231 227 224 221 220 223 221 221 219 206 200 191 171 155 131 119 215 225 155 104 127 146 165 163 142 135 162 203 145 134 116 136 142 167 180 158 116 155 131 125 20 356 260 263 309 26 199 154 176 183 145 77 88 130 148 134 104 58 35 31 42 46 59 80 37 291 233 199 189 191 262 282 194 192 251 184 158 164 196 182 169 162 152 143 133 125
232 233 231 224 221 218 220 224 219 216 215 210 203 183 161 147 119 185 212 205 71 126 122 138 183 150 146 138 153 187 145 101 141 143 136 134 161 148 107 127 99 85 8 331 293 306 332 303 256 222 187 136 104 70 46 59 86 104 83 60 34 339 9 22 358 47 115 261 258 225 202 175 229 271 243 244 308 181 170 170 182 185 178 170 160 151 140 132
231 232 231 227 224 222 223 227 225 220 219 216 201 177 156 156 222 205 207 90 115 195 157 163 185 158 166 143 153 175 142 147 168 151 148 134 154 184 172 167 158 79 344 260 269 333 311 248 266 328 195 159 113 69 21 16 46 81 91 87 66 325 356 353 311 37 232 253 271 256 152 177 237 247 277 288 306 290 229 186 175 176 175 171 165 157 147 139
232 231 231 228 228 230 228 230 230 228 227 217 195 172 151 213 211 183 178 177 181 179 137 136 129 139 151 137 189 183 134 172 186 163 150 123 150 219 252 200 162 129 91 200 219 338 299 297 314 93 242 194 158 138 193 273 101 136 141 128 127 121 51 297 275 274 274 272 288 270 141 247 271 271 248 267 289 295 249 190 177 172 169 168 165 160 153 145
232 231 231 229 232 234 234 235 232 232 228 206 182 162 199 229 204 152 176 205 218 83 81 106 112 115 137 167 217 184 148 198 175 150 131 114 138 229 248 222 173 129 112 146 186 179 227 306 236 184 224 183 176 178 165 142 140 172 156 136 145 149 164 226 230 221 262 285 299 297 167 198 233 265 262 261 306 332 175 169 169 168 168 167 165 163 158 151
230 229 231 235 238 235 236 236 232 231 218 192 168 168 213 211 185 151 183 202 182 114 55 78 107 117 164 238 248 196 201 223 158 136 148 161 174 196 202 203 179 145 129 159 226 174 184 261 252 261 77 153 175 193 133 109 112 214 120 112 161 175 171 211 210 180 193 298 294 224 215 221 194 222 310 333 48 67 122 148 157 164 169 169 169 168 163 157
228 227 230 237 240 239 237 232 229 225 204 178 153 215 212 207 183 174 192 181 154 144 120 77 89 124 196 264 273 226 219 158 150 153 184 194 207 202 202 217 183 172 166 164 207 192 169 265 283 351 22 147 153 172 133 131 191 167 120 181 218 169 137 147 265 60 84 261 269 198 235 290 304 284 348 37 72 79 112 145 158 167 172 174 176 173 168 164
224 225 229 234 237 238 232 225 224 214 193 171 171 213 199 213 191 177 196 160 135 129 130 139 172 164 196 221 217 216 165 134 161 170 195 214 229 193 196 247 189 183 191 176 205 214 181 264 275 124 186 268 66 99 65 48 128 127 176 211 190 118 99 105 244 340 31 246 269 269 213 259 266 255 346 31 183 187 170 171 171 175 179 183 183 178 173 169
222 223 226 230 232 231 224 217 213 199 182 170 216 216 198 210 195 162 159 142 105 104 126 175 201 172 182 190 218 219 183 178 175 171 187 215 237 177 162 209 182 194 209 177 143 239 152 268 282 131 164 273 40 90 54 5 62 127 184 191 120 149 191 98 162 223 253 250 276 296 263 238 214 215 215 210 208 199 193 193 190 190 191 191 189 184 179 176
216 214 216 219 220 218 209 201 197 189 175 177 216 216 210 197 202 172 153 123 82 111 133 189 188 115 160 170 188 201 184 181 174 181 186 186 229 190 137 163 152 221 215 169 164 244 121 214 283 355 37 293 36 80 178 268 343 70 105 8 62 166 180 161 154 176 212 244 266 292 297 271 233 205 186 204 201 181 180 194 201 199 195 194 191 186 185 184
198 196 204 207 204 200 191 188 189 187 181 200 206 204 133 186 212 174 153 117 69 107 144 190 148 138 177 178 197 197 167 171 167 181 213 187 228 246 108 149 137 96 145 152 156 14 90 199 255 334 343 240 160 201 190 188 193 157 174 223 249 214 155 223 233 130 151 196 220 265 279 268 253 198 186 207 195 177 186 193 192 194 195 194 191 188 189 189
180 181 203 195 190 184 179 183 192 191 194 219 191 133 136 200 220 155 161 162 133 99 132 161 163 171 175 182 213 197 139 179 177 189 233 217 221 234 208 143 151 145 106 105 157 202 156 185 215 240 284 197 225 242 200 186 179 165 184 203 200 185 147 240 258 211 125 176 181 212 263 269 258 216 211 215 191 189 196 189 179 188 193 193 193 193 195 194
174 167 224 186 182 178 174 179 261 23 142 222 157 127 146 90 41 166 159 158 153 107 118 159 184 175 176 193 195 170 164 196 195 196 230 227 216 214 184 143 170 160 128 124 201 198 123 119 197 243 216 209 247 283 235 195 153 130 173 190 164 154 140 190 236 231 172 231 140 144 257 266 256 256 268 248 217 203 196 184 174 185 191 193 195 198 199 201
170 162 194 184 178 175 171 168 332 259 227 304 345 46 90 90 170 244 171 149 138 115 131 191 197 191 217 204 163 169 187 198 195 197 224 232 216 213 163 150 165 139 123 150 210 142 98 106 190 267 303 325 311 331 358 44 101 118 247 152 141 163 147 175 211 177 162 229 136 144 250 250 307 321 323 273 209 190 187 182 178 185 193 197 200 202 204 207
151 151 173 179 176 177 178 177 211 208 209 7 301 302 334 325 209 198 192 171 139 124 136 207 189 210 235 176 157 190 190 199 214 204 208 207 187 170 128 144 179 166 138 186 181 160 175 148 140 231 299 317 324 338 335 336 40 183 241 182 151 128 107 108 134 120 196 218 171 199 249 248 287 343 17 53 134 158 180 184 182 187 195 201 203 205 210 213
131 133 166 178 180 185 195 201 154 183 171 145 197 248 303 319 246 225 214 193 174 156 162 238 203 202 209 141 162 205 197 210 228 209 172 200 231 210 90 47 196 185 170 167 152 152 175 181 143 183 238 247 242 230 225 259 247 201 229 213 191 158 148 152 144 165 223 223 165 208 252 268 300 351 40 65 119 143 183 190 190 193 200 207 210 212 217 218
133 133 171 178 189 202 221 221 178 141 160 166 167 191 185 198 262 234 214 212 210 191 191 234 203 183 199 170 183 219 221 219 212 168 160 198 250 285 13 26 134 151 142 142 138 125 123 192 190 203 233 241 231 230 213 153 165 202 222 211 203 188 163 142 134 186 203 198 230 235 224 270 289 285 125 161 174 173 188 195 201 204 206 214 221 224 226 225
141 183 178 168 200 223 238 228 204 189 161 173 176 169 185 192 228 225 206 210 210 197 205 239 183 189 212 181 181 224 224 209 190 183 188 193 233 298 359 58 106 136 143 139 137 113 97 250 229 215 243 245 181 200 203 163 210 207 206 221 215 187 152 155 190 203 167 175 252 247 207 223 263 258 210 196 201 199 200 200 206 211 215 224 232 234 233 230
165 197 185 176 179 212 224 213 198 196 188 181 186 144 176 190 192 197 203 206 200 194 202 232 207 212 211 176 177 218 208 203 215 200 177 156 176 4 352 332 124 148 146 135 139 121 125 239 235 186 248 255 162 190 192 180 228 221 217 235 225 193 177 184 211 209 185 210 254 258 223 224 251 249 200 193 201 207 212 212 215 223 232 241 245 241 239 237
181 184 185 190 194 193 207 197 183 192 204 191 197 214 196 198 199 192 176 148 197 207 199 216 228 218 204 179 182 208 202 197 219 213 181 166 179 157 189 263 234 179 143 129 146 131 138 224 201 158 245 276 176 252 221 173 226 260 248 245 236 213 193 190 211 221 217 236 261 271 263 254 255 248 213 215 221 222 228 229 231 241 251 256 253 246 245 245
190 190 180 190 208 213 197 185 171 191 210 195 216 231 205 204 213 207 175 168 193 211 195 216 232 205 188 193 196 219 223 194 193 208 166 155 205 193 199 217 181 158 142 137 178 163 156 197 133 128 227 295 227 270 20 112 239 264 263 257 246 215 219 221 223 226 238 255 255 257 264 263 261 248 225 241 236 227 234 238 240 247 253 254 253 250 249 247
197 195 182 175 198 188 180 181 167 182 208 198 219 225 198 217 216 195 201 212 210 204 184 210 225 195 184 211 209 226 229 195 195 214 191 187 207 201 200 195 158 151 169 172 179 183 171 195 55 102 194 251 209 165 139 74 349 265 263 260 240 209 232 234 214 204 217 231 241 248 252 257 263 227 188 231 226 214 225 236 241 250 253 251 251 249 248 246
203 203 196 184 189 181 176 174 163 184 212 209 217 219 208 220 200 165 202 239 220 218 213 210 211 188 193 218 219 231 234 217 222 229 209 203 203 189 191 187 166 163 169 165 166 150 159 157 114 149 205 239 174 156 135 63 342 262 259 249 226 226 235 233 222 221 215 205 214 230 234 247 266 256 207 233 223 216 232 241 247 256 256 250 247 245 247 245
Height
1548 1548 1548 1549 1549 1549 1550 1550 1550 1550 1551 1551 1551 1551 1551 1551 1551 1551 1551 1551 1551 1551 1551 1550 1550 1549 1549 1548 1548 1547 1547 1546 1545 1544 1542 1542 1541 1541 1541 1542 1543 1542 1543 1542 1542 1542 1542 1542 1542 1543 1543 1543 1543 1543 1544 1543 1544 1544 1547 1551 1551 1554 1551 1545 1546 1544 1542 1541 1539 1538 1538 1539 1537 1535 1535 1534 1533 1532 1530 1529 1529 1530 1530 1530 1529 1529 1528 1527
1547 1548 1548 1548 1548 1549 1549 1549 1550 1550 1550 1550 1550 1550 1550 1550 1550 1550 1550 1550 1550 1550 1550 1549 1549 1549 1548 1548 1547 1547 1546 1545 1543 1542 1541 1540 1540 1540 1541 1542 1542 1542 1542 1542 1542 1542 1542 1542 1543 1543 1543 1543 1543 1543 1544 1544 1544 1546 1550 1552 1550 1550 1545 1541 1542 1541 1541 1540 1538 1538 1538 1538 1537 1535 1534 1533 1532 1532 1529 1525 1526 1527 1527 1528 1528 1528 1527 1526
1547 1547 1547 1548 1548 1548 1548 1549 1549 1549 1549 1549 1549 1549 1550 1550 1550 1550 1549 1550 1549 1549 1549 1549 1548 1548 1548 1547 1547 1546 1545 1544 1542 1541 1540 1540 1540 1541 1541 1542 1542 1542 1542 1542 1542 1542 1542 1542 1542 1543 1543 1543 1543 1544 1544 1544 1545 1546 1549 1551 1547 1545 1543 1540 1541 1540 1540 1539 1538 1538 1538 1537 1536 1535 1534 1532 1530 1530 1529 1525 1524 1524 1524 1525 1526 1526 1526 1525
1546 1546 1546 1547 1547 1547 1547 1548 1548 1548 1548 1548 1548 1548 1549 1549 1549 1549 1549 1549 1548 1548 1548 1548 1547 1547 1547 1546 1546 1545 1544 1543 1540 1540 1540 1540 1541 1541 1541 1541 1541 1541 1541 1541 1541 1541 1541 1542 1542 1543 1543 1543 1544 1544 1544 1544 1545 1546 1547 1547 1544 1543 1543 1540 1539 1539 1539 1539 1539 1538 1538 1537 1535 1535 1533 1532 1530 1528 1526 1525 1525 1524 1523 1524 1524 1524 1524 1523
1545 1546 1546 1546 1546 1546 1547 1547 1547 1547 1547 1547 1547 1547 1548 1548 1548 1548 1548 1548 1547 1547 1547 1547 1546 1546 1546 1545 1545 1545 1545 1544 1540 1540 1541 1540 1541 1540 1541 1541 1541 1541 1541 1541 1541 1541 1541 1542 1542 1542 1543 1543 1544 1543 1543 1543 1544 1545 1544 1543 1542 1543 1542 1538 1539 1539 1538 1538 1538 1537 1537 1536 1535 1534 1533 1532 1531 1526 1523 1524 1525 1524 1523 1523 1523 1523 1522 1521
1544 1545 1545 1545 1545 1545 1546 1546 1546 1546 1546 1546 1546 1546 1546 1546 1547 1547 1547 1547 1546 1546 1546 1546 1545 1545 1545 1544 1544 1544 1545 1544 1541 1540 1541 1540 1540 1540 1540 1540 1540 1540 1540 1540 1540 1540 1541 1541 1542 1542 1542 1543 1544 1543 1543 1543 1544 1544 1542 1541 1541 1541 1540 1538 1538 1538 1537 1537 1536 1536 1536 1535 1535 1533 1531 1530 1527 1523 1522 1524 1525 1524 1524 1523 1523 1522 1520 1519
1543 1544 1544 1544 1544 1544 1544 1545 1545 1545 1545 1545 1545 1545 1545 1545 1545 1545 1545 1545 1545 1545 1544 1544 1544 1544 1544 1543 1543 1543 1543 1541 1540 1541 1540 1540 1540 1540 1540 1540 1540 1540 1539 1539 1539 1540 1540 1541 1541 1542 1542 1543 1543 1543 1542 1543 1543 1544 1542 1540 1540 1540 1539 1538 1537 1536 1536 1536 1535 1535 1534 1533 1534 1532 1531 1526 1521 1521 1522 1523 1524 1524 1523 1523 1522 1521 1519 1518
1542 1542 1542 1543 1543 1543 1543 1543 1543 1544 1544 1544 1544 1544 1544 1544 1544 1544 1544 1544 1544 1543 1543 1543 1543 1542 1542 1542 1542 1542 1541 1539 1539 1540 1539 1539 1539 1539 1539 1539 1540 1539 1539 1539 1539 1540 1540 1540 1541 1541 1542 1542 1542 1542 1542 1542 1542 1542 1541 1540 1539 1539 1537 1537 1536 1534 1534 1533 1533 1534 1532 1531 1531 1532 1529 1523 1519 1520 1522 1522 1522 1522 1522 1522 1521 1520 1519 1518
1540 1541 1541 1541 1542 1542 1542 1542 1542 1542 1542 1542 1542 1542 1542 1542 1542 1542 1542 1542 1542 1542 1542 1542 1541 1541 1541 1541 1541 1541 1538 1538 1538 1538 1538 1538 1538 1538 1538 1538 1539 1539 1539 1539 1539 1539 1539 1540 1540 1540 1541 1541 1541 1541 1542 1542 1542 1540 1540 1540 1539 1538 1537 1536 1534 1532 1532 1532 1532 1532 1529 1528 1529 1530 1526 1520 1518 1520 1521 1521 1521 1521 1521 1521 1520 1519 1518 1518
1539 1539 1540 1540 1540 1541 1541 1541 1541 1541 1541 1541 1541 1541 1541 1541 1541 1541 1541 1541 1541 1541 1541 1540 1540 1540 1540 1540 1541 1540 1537 1536 1537 1537 1537 1537 1537 1537 1537 1538 1538 1538 1538 1538 1538 1539 1539 1539 1540 1540 1540 1540 1541 1541 1541 1542 1541 1539 1540 1539 1538 1538 1535 1534 1532 1529 1530 1530 1530 1530 1527 1526 1528 1529 1524 1518 1519 1520 1520 1520 1520 1520 1520 1520 1519 1519 1518 1517
1537 1538 1538 1538 1539 1539 1539 1539 1539 1539 1540 1539 1540 1539 1539 1539 1539 1539 1539 1539 1539 1539 1539 1539 1539 1539 1539 1539 1539 1537 1535 1536 1536 1535 1536 1536 1536 1536 1536 1537 1537 1537 1537 1537 1538 1538 1539 1539 1539 1540 1540 1540 1541 1541 1541 1540 1540 1539 1540 1538 1537 1536 1534 1532 1530 1528 1528 1528 1527 1528 1526 1524 1527 1528 1521 1517 1519 1519 1519 1519 1519 1519 1519 1519 1519 1518 1518 1517
1536 1536 1537 1537 1537 1537 1538 1538 1538 1538 1538 1538 1538 1538 1538 1538 1538 1538 1538 1538 1538 1538 1537 1537 1537 1537 1537 1537 1535 1534 1534 1534 1534 1534 1534 1534 1535 1535 1535 1536 1536 1536 1536 1537 1537 1537 1538 1538 1539 1539 1539 1540 1540 1541 1540 1539 1540 1539 1539 1539 1536 1535 1532 1528 1528 1528 1528 1527 1526 1527 1527 1524 1523 1523 1517 1517 1520 1519 1519 1519 1519 1519 1519 1518 1518 1518 1517 1516
1534 1534 1535 1535 1536 1536 1536 1536 1536 1536 1536 1536 1536 1536 1537 1537 1537 1537 1537 1537 1536 1536 1536 1536 1536 1536 1536 1534 1532 1532 1533 1532 1532 1533 1533 1533 1533 1534 1534 1535 1535 1535 1535 1536 1536 1536 1537 1537 1538 1539 1539 1539 1540 1540 1539 1539 1540 1539 1540 1540 1537 1538 1533 1525 1526 1527 1527 1527 1525 1527 1531 1525 1518 1517 1517 1519 1520 1519 1519 1519 1519 1519 1518 1518 1518 1517 1517 1516
1532 1532 1533 1533 1534 1534 1534 1534 1535 1535 1535 1535 1535 1535 1535 1535 1536 1535 1535 1536 1535 1535 1535 1535 1535 1534 1534 1531 1530 1530 1531 1531 1531 1531 1531 1531 1532 1532 1533 1533 1534 1534 1534 1535 1535 1535 1536 1536 1537 1538 1538 1539 1539 1539 1540 1540 1540 1540 1541 1541 1542 1543 1534 1524 1526 1527 1525 1526 1524 1527 1532 1526 1516 1515 1517 1518 1518 1518 1519 1519 1519 1519 1518 1518 1517 1517 1516 1516
1530 1531 1531 1532 1532 1532 1533 1533 1533 1533 1533 1533 1533 1533 1533 1534 1534 1534 1534 1534 1534 1534 1534 1534 1533 1533 1532 1529 1528 1528 1528 1528 1529 1529 1530 1530 1530 1531 1531 1532 1532 1533 1533 1533 1534 1535 1535 1536 1536 1537 1537 1537 1538 1539 1541 1542 1541 1542 1543 1542 1546 1546 1535 1526 1525 1526 1525 1525 1525 1527 1530 1526 1518 1516 1516 1518 1518 1518 1518 1519 1519 1518 1518 1518 1517 1517 1516 1516
1529 1529 1529 1530 1530 1530 1531 1531 1531 1531 1531 1532 1532 1532 1532 1532 1532 1532 1533 1532 1533 1532 1532 1533 1532 1532 1532 1528 1526 1527 1526 1527 1527 1527 1528 1528 1529 1529 1530 1531 1531 1531 1532 1533 1533 1534 1535 1536 1536 1537 1537 1537 1539 1540 1543 1545 1544 1544 1545 1543 1543 1544 1541 1533 1525 1524 1526 1525 1526 1527 1528 1526 1519 1515 1516 1518 1518 1518 1518 1518 1519 1519 1518 1518 1518 1517 1517 1516
1527 1527 1528 1528 1529 1529 1529 1529 1529 1530 1530 1530 1530 1530 1530 1531 1530 1531 1531 1531 1531 1531 1531 1531 1531 1531 1529 1525 1525 1525 1525 1525 1525 1526 1526 1527 1528 1528 1529 1530 1530 1531 1531 1532 1533 1533 1534 1535 1535 1536 1536 1538 1539 1540 1546 1549 1545 1543 1546 1545 1542 1543 1543 1537 1528 1525 1526 1525 1527 1527 1528 1525 1518 1515 1516 1518 1518 1518 1518 1518 1519 1519 1519 1519 1519 1518 1517 1517
1525 1526 1526 1527 1527 1528 1528 1528 1528 1528 1528 1529 1529 1529 1529 1529 1529 1529 1529 1529 1529 1530 1530 1529 1530 1532 1527 1522 1523 1523 1523 1524 1524 1525 1525 1526 1527 1527 1528 1529 1529 1530 1531 1532 1532 1533 1534 1534 1535 1536 1537 1539 1539 1540 1545 1544 1537 1536 1540 1542 1541 1541 1540 1538 1532 1527 1525 1525 1527 1528 1528 1524 1518 1516 1518 1519 1518 1517 1518 1519 1519 1519 1520 1519 1519 1518 1517 1517
1523 1524 1524 1525 1525 1526 1526 1526 1526 1527 1527 1528 1528 1528 1528 1528 1528 1527 1527 1528 1527 1528 1527 1525 1526 1528 1524 1520 1521 1522 1522 1523 1524 1524 1524 1525 1526 1527 1528 1528 1529 1529 1530 1531 1532 1532 1533 1534 1536 1538 1538 1538 1536 1535 1534 1531 1530 1531 1535 1537 1538 1538 1536 1534 1532 1528 1527 1527 1527 1527 1527 1523 1518 1517 1520 1519 1518 1518 1518 1520 1520 1520 1520 1519 1519 1518 1518 1517
1521 1522 1523 1523 1524 1524 1524 1525 1525 1525 1526 1526 1527 1527 1527 1527 1527 1526 1525 1524 1523 1523 1523 1521 1521 1521 1520 1519 1520 1521 1521 1522 1522 1523 1524 1524 1525 1526 1527 1528 1528 1529 1530 1531 1531 1532 1533 1535 1536 1535 1532 1530 1529 1529 1529 1529 1532 1534 1535 1537 1537 1538 1534 1529 1529 1527 1527 1528 1526 1526 1525 1522 1519 1519 1522 1521 1518 1519 1520 1520 1521 1521 1520 1519 1519 1519 1518 1518
1520 1521 1521 1522 1522 1523 1523 1523 1524 1524 1525 1525 1525 1526 1526 1526 1526 1525 1523 1521 1520 1520 1520 1519 1519 1518 1518 1519 1519 1520 1520 1521 1521 1522 1523 1523 1525 1526 1526 1528 1528 1529 1530 1530 1532 1532 1533 1536 1533 1528 1525 1526 1527 1529 1530 1532 1533 1534 1536 1537 1536 1538 1533 1527 1526 1526 1526 1528 1527 1527 1526 1521 1519 1522 1524 1523 1521 1522 1522 1522 1522 1522 1521 1520 1520 1520 1519 1520
1518 1519 1520 1520 1521 1522 1522 1522 1522 1523 1523 1524 1524 1524 1524 1524 1524 1524 1523 1521 1518 1517 1517 1516 1517 1515 1515 1517 1517 1518 1519 1519 1520 1520 1521 1522 1523 1524 1525 1527 1528 1528 1530 1531 1532 1533 1535 1534 1527 1523 1525 1527 1528 1530 1531 1532 1534 1535 1537 1538 1536 1536 1532 1525 1525 1527 1527 1527 1526 1526 1525 1520 1520 1525 1525 1524 1524 1525 1525 1524 1524 1523 1522 1521 1521 1521 1521 1522
1516 1517 1518 1519 1519 1520 1520 1521 1521 1521 1522 1522 1522 1523 1523 1523 1523 1523 1524 1522 1516 1513 1513 1513 1513 1512 1512 1513 1514 1516 1517 1517 1518 1518 1520 1521 1522 1523 1524 1525 1527 1528 1530 1530 1531 1534 1535 1529 1522 1522 1525 1527 1529 1530 1531 1533 1535 1535 1536 1538 1535 1534 1532 1527 1525 1527 1528 1528 1526 1526 1525 1521 1522 1526 1526 1527 1526 1526 1527 1526 1525 1525 1523 1523 1523 1522 1523 1524
1514 1515 1516 1516 1518 1518 1518 1519 1519 1520 1520 1520 1521 1522 1522 1523 1523 1523 1523 1521 1517 1511 1509 1509 1509 1509 1509 1510 1511 1513 1514 1514 1515 1516 1517 1519 1520 1522 1522 1523 1526 1528 1528 1528 1529 1531 1528 1523 1521 1523 1524 1526 1528 1531 1532 1533 1534 1534 1534 1535 1532 1530 1531 1529 1527 1527 1527 1529 1528 1525 1523 1519 1519 1522 1525 1528 1528 1527 1528 1528 1527 1527 1526 1525 1525 1524 1525 1525
1512 1513 1514 1515 1516 1516 1517 1518 1517 1519 1519 1519 1520 1520 1522 1522 1522 1523 1522 1522 1518 1510 1507 1506 1506 1506 1506 1507 1509 1510 1511 1512 1512 1513 1514 1516 1518 1519 1520 1521 1524 1525 1527 1527 1530 1530 1525 1520 1521 1523 1525 1527 1527 1529 1531 1531 1532 1532 1529 1528 1526 1525 1528 1529 1530 1530 1528 1528 1529 1527 1524 1519 1516 1520 1525 1528 1529 1529 1530 1529 1529 1529 1528 1528 1527 1527 1527 1526
1510 1511 1512 1513 1515 1515 1516 1515 1516 1517 1517 1518 1519 1519 1521 1521 1522 1522 1522 1525 1519 1507 1504 1505 1504 1504 1503 1505 1507 1508 1511 1510 1509 1511 1512 1514 1516 1517 1519 1520 1521 1523 1524 1527 1529 1527 1522 1519 1520 1521 1523 1526 1527 1529 1528 1529 1533 1532 1526 1524 1525 1525 1528 1530 1530 1531 1530 1529 1530 1530 1528 1523 1515 1516 1523 1528 1530 1531 1531 1531 1530 1530 1530 1529 1529 1529 1529 1528
1507 1509 1510 1512 1513 1513 1514 1513 1515 1515 1515 1517 1517 1518 1520 1519 1522 1522 1522 1530 1519 1499 1499 1502 1502 1502 1502 1504 1505 1507 1510 1508 1507 1510 1511 1513 1514 1515 1517 1519 1520 1521 1522 1525 1527 1523 1518 1519 1520 1520 1522 1525 1526 1526 1525 1527 1531 1530 1525 1524 1526 1525 1527 1528 1528 1530 1531 1531 1531 1528 1528 1528 1518 1515 1523 1527 1529 1532 1532 1532 1532 1531 1531 1531 1531 1531 1530 1528
1505 1506 1507 1509 1510 1511 1511 1512 1513 1513 1514 1516 1516 1518 1519 1519 1522 1520 1525 1534 1513 1492 1496 1500 1500 1501 1501 1504 1505 1505 1507 1506 1507 1510 1510 1512 1514 1514 1516 1517 1518 1519 1520 1522 1523 1519 1517 1519 1519 1520 1522 1523 1523 1522 1522 1524 1526 1525 1526 1527 1526 1526 1527 1528 1529 1531 1535 1535 1533 1529 1530 1530 1519 1517 1527 1527 1525 1529 1531 1532 1532 1531 1532 1532 1532 1531 1530 1529
1502 1503 1504 1507 1508 1509 1510 1510 1511 1511 1514 1515 1516 1517 1517 1520 1521 1519 1531 1532 1503 1489 1497 1498 1499 1502 1501 1503 1505 1504 1506 1506 1508 1509 1510 1512 1514 1514 1515 1516 1516 1518 1519 1520 1519 1517 1517 1517 1517 1518 1520 1519 1519 1522 1522 1522 1523 1524 1527 1528 1528 1530 1531 1531 1531 1531 1535 1536 1532 1529 1530 1529 1518 1515 1525 1526 1521 1523 1529 1532 1531 1531 1532 1532 1532 1531 1530 1529
1499 1500 1502 1504 1505 1506 1507 1507 1508 1510 1512 1514 1514 1516 1517 1518 1519 1526 1534 1520 1494 1491 1498 1497 1499 1501 1501 1504 1505 1505 1506 1506 1507 1509 1511 1513 1513 1514 1515 1515 1516 1517 1519 1521 1519 1517 1517 1517 1517 1516 1516 1516 1518 1523 1524 1523 1524 1525 1527 1525 1526 1530 1531 1534 1535 1533 1535 1532 1526 1524 1524 1527 1522 1513 1517 1522 1519 1520 1526 1530 1531 1531 1531 1531 1531 1531 1530 1530
1495 1497 1499 1500 1500 1502 1503 1503 1504 1508 1510 1511 1512 1514 1516 1517 1519 1525 1521 1501 1491 1495 1496 1497 1501 1500 1500 1503 1504 1505 1506 1507 1508 1508 1511 1512 1513 1514 1515 1515 1517 1519 1522 1521 1519 1518 1517 1516 1516 1513 1513 1515 1517 1520 1523 1525 1525 1525 1525 1524 1527 1530 1530 1534 1536 1536 1537 1528 1524 1529 1529 1530 1527 1513 1512 1520 1522 1521 1522 1524 1527 1528 1529 1530 1530 1530 1530 1530
1492 1494 1495 1496 1497 1499 1499 1499 1503 1507 1508 1508 1510 1510 1513 1518 1518 1514 1503 1492 1492 1494 1491 1495 1499 1499 1501 1501 1501 1503 1505 1506 1507 1508 1510 1512 1513 1513 1513 1513 1514 1519 1522 1522 1520 1518 1515 1514 1514 1513 1513 1514 1515 1519 1524 1525 1525 1526 1526 1528 1533 1537 1538 1537 1536 1539 1538 1528 1529 1535 1532 1530 1523 1512 1515 1520 1521 1522 1520 1519 1522 1524 1526 1528 1529 1530 1530 1530
1489 1491 1492 1493 1494 1495 1496 1498 1501 1504 1504 1506 1508 1507 1510 1513 1505 1495 1493 1491 1489 1488 1488 1491 1495 1498 1500 1500 1500 1503 1503 1504 1505 1507 1509 1512 1513 1512 1511 1512 1512 1513 1517 1522 1523 1520 1515 1512 1513 1513 1512 1511 1512 1516 1520 1521 1524 1526 1525 1527 1533 1540 1545 1542 1540 1544 1538 1527 1531 1535 1531 1527 1515 1511 1521 1523 1520 1521 1519 1519 1521 1521 1524 1526 1528 1529 1529 1530
1485 1487 1489 1489 1491 1492 1493 1496 1498 1498 1501 1503 1505 1507 1510 1506 1493 1486 1489 1488 1486 1487 1488 1489 1493 1498 1499 1498 1499 1500 1501 1503 1504 1506 1509 1511 1513 1512 1509 1510 1512 1510 1514 1520 1522 1520 1518 1513 1509 1509 1509 1508 1509 1511 1512 1516 1523 1526 1524 1525 1527 1531 1536 1534 1532 1533 1528 1524 1530 1534 1528 1518 1508 1512 1524 1524 1521 1521 1519 1520 1522 1523 1525 1526 1527 1529 1529 1530
1481 1483 1486 1487 1488 1489 1490 1493 1494 1495 1498 1498 1501 1507 1505 1495 1488 1487 1486 1484 1485 1488 1488 1489 1492 1497 1499 1498 1498 1497 1497 1500 1504 1506 1507 1509 1509 1508 1505 1505 1508 1510 1512 1517 1518 1519 1520 1512 1506 1507 1507 1507 1508 1509 1510 1514 1520 1527 1528 1526 1524 1522 1521 1526 1530 1531 1531 1529 1530 1528 1521 1513 1512 1519 1525 1523 1522 1522 1521 1521 1523 1524 1526 1526 1527 1528 1529 1530
1478 1480 1482 1483 1483 1485 1487 1489 1490 1493 1493 1493 1499 1502 1494 1485 1484 1484 1481 1480 1482 1485 1488 1492 1492 1495 1499 1497 1496 1497 1494 1496 1502 1504 1506 1508 1506 1505 1502 1500 1502 1505 1506 1510 1512 1514 1516 1511 1507 1509 1508 1508 1510 1509 1511 1512 1515 1525 1528 1521 1521 1521 1518 1523 1532 1536 1538 1533 1525 1521 1516 1512 1515 1518 1522 1524 1522 1523 1524 1523 1523 1524 1526 1526 1527 1528 1528 1529
1475 1476 1477 1478 1479 1481 1483 1485 1487 1489 1489 1490 1493 1491 1484 1481 1480 1479 1479 1478 1479 1481 1486 1491 1492 1493 1497 1496 1495 1496 1494 1496 1501 1501 1503 1505 1501 1499 1500 1497 1498 1499 1498 1501 1504 1506 1509 1509 1507 1508 1508 1508 1511 1510 1512 1512 1513 1520 1522 1516 1518 1523 1521 1524 1529 1533 1538 1534 1524 1518 1514 1511 1509 1510 1519 1526 1523 1523 1525 1524 1524 1525 1525 1526 1527 1527 1528 1529
1472 1473 1473 1474 1476 1477 1479 1482 1484 1485 1486 1488 1488 1483 1480 1479 1477 1476 1477 1477 1478 1480 1483 1489 1489 1490 1494 1495 1495 1495 1495 1496 1499 1500 1500 1500 1496 1494 1495 1495 1496 1498 1497 1498 1501 1503 1507 1508 1507 1509 1510 1510 1511 1512 1513 1514 1514 1515 1515 1514 1517 1520 1520 1526 1529 1528 1531 1530 1520 1513 1511 1511 1506 1505 1512 1517 1518 1521 1523 1523 1524 1524 1524 1525 1525 1526 1527 1528
1468 1470 1471 1471 1473 1475 1477 1479 1481 1481 1482 1484 1484 1481 1479 1477 1476 1476 1476 1477 1478 1480 1483 1486 1487 1490 1493 1493 1493 1494 1495 1496 1498 1499 1497 1497 1495 1492 1492 1493 1495 1497 1497 1498 1501 1503 1506 1508 1508 1510 1511 1511 1511 1513 1513 1514 1515 1515 1515 1516 1517 1517 1517 1521 1524 1522 1520 1522 1519 1512 1508 1504 1501 1503 1503 1503 1511 1517 1519 1521 1521 1521 1522 1523 1523 1525 1525 1526
1466 1468 1469 1469 1471 1473 1475 1477 1477 1477 1477 1477 1476 1477 1478 1476 1476 1476 1476 1477 1478 1480 1484 1486 1487 1490 1492 1493 1493 1493 1493 1494 1496 1496 1495 1494 1493 1492 1492 1493 1493 1497 1498 1499 1501 1503 1505 1509 1510 1511 1514 1513 1510 1510 1509 1508 1511 1513 1515 1517 1517 1518 1519 1519 1520 1519 1517 1519 1520 1518 1511 1499 1498 1505 1502 1500 1508 1512 1512 1514 1515 1517 1520 1520 1521 1523 1523 1525
1464 1466 1467 1467 1469 1472 1474 1476 1475 1474 1473 1473 1473 1476 1477 1476 1476 1476 1476 1477 1479 1481 1483 1485 1487 1489 1490 1492 1492 1491 1492 1493 1494 1495 1495 1494 1492 1491 1492 1493 1493 1495 1498 1499 1501 1502 1504 1507 1508 1509 1512 1510 1506 1507 1507 1506 1506 1507 1509 1511 1511 1513 1517 1519 1520 1520 1519 1518 1516 1516 1511 1498 1498 1506 1505 1503 1507 1507 1506 1509 1511 1515 1517 1518 1520 1520 1521 1523
1463 1466 1467 1467 1468 1469 1471 1473 1474 1474 1474 1473 1473 1474 1476 1475 1475 1476 1476 1478 1480 1481 1483 1485 1486 1488 1488 1489 1490 1491 1492 1493 1493 1495 1494 1493 1491 1491 1492 1494 1494 1494 1495 1499 1501 1501 1503 1506 1507 1505 1506 1508 1507 1509 1510 1509 1507 1507 1507 1508 1509 1510 1512 1513 1515 1516 1518 1521 1520 1519 1512 1501 1501 1507 1505 1504 1505 1503 1505 1507 1510 1513 1515 1516 1518 1519 1521 1522
1462 1465 1466 1467 1467 1467 1468 1471 1473 1474 1474 1474 1473 1473 1474 1475 1476 1476 1476 1477 1480 1482 1484 1485 1485 1486 1486 1487 1489 1491 1492 1493 1493 1493 1492 1492 1491 1492 1493 1494 1494 1493 1494 1497 1499 1500 1502 1505 1507 1505 1503 1507 1509 1509 1509 1510 1509 1508 1507 1509 1510 1509 1508 1510 1512 1513 1515 1516 1517 1520 1513 1502 1503 1506 1504 1503 1504 1504 1506 1507 1509 1512 1513 1514 1516 1517 1519 1520
1461 1463 1465 1467 1468 1467 1467 1468 1470 1471 1473 1475 1475 1474 1474 1475 1475 1476 1476 1476 1478 1481 1484 1484 1485 1485 1485 1486 1488 1489 1491 1492 1491 1490 1490 1491 1491 1493 1494 1493 1494 1493 1493 1494 1495 1497 1500 1503 1506 1509 1509 1509 1510 1510 1510 1510 1508 1507 1507 1510 1511 1510 1511 1515 1516 1518 1519 1512 1509 1513 1506 1498 1502 1507 1504 1504 1505 1505 1507 1508 1508 1510 1511 1512 1514 1515 1516 1517
1461 1464 1466 1467 1467 1467 1467 1467 1468 1470 1473 1475 1476 1476 1476 1476 1475 1475 1476 1477 1478 1481 1483 1483 1483 1484 1485 1487 1487 1488 1488 1489 1489 1489 1490 1491 1492 1493 1494 1493 1494 1493 1493 1494 1494 1494 1498 1501 1502 1507 1510 1509 1507 1506 1507 1506 1506 1508 1508 1509 1510 1509 1510 1511 1512 1517 1517 1511 1510 1511 1504 1499 1502 1505 1504 1505 1507 1507 1508 1509 1509 1509 1510 1511 1512 1513 1513 1514
1461 1464 1466 1467 1468 1468 1467 1466 1468 1471 1473 1475 1476 1476 1477 1477 1475 1474 1476 1477 1478 1479 1481 1482 1483 1484 1485 1486 1487 1488 1487 1487 1488 1489 1490 1490 1492 1494 1494 1493 1493 1493 1493 1494 1494 1495 1499 1502 1500 1499 1500 1500 1498 1499 1503 1504 1501 1502 1505 1505 1507 1508 1508 1508 1510 1513 1512 1511 1512 1508 1504 1504 1503 1501 1503 1505 1506 1507 1507 1507 1508 1508 1509 1510 1510 1511 1511 1511
1461 1463 1464 1466 1468 1468 1467 1467 1468 1470 1471 1472 1473 1473 1474 1475 1475 1475 1476 1476 1477 1478 1480 1481 1482 1483 1484 1485 1487 1487 1486 1487 1488 1489 1489 1490 1491 1494 1494 1493 1493 1494 1493 1494 1494 1496 1500 1501 1500 1498 1498 1499 1500 1501 1504 1505 1501 1499 1501 1501 1503 1508 1509 1508 1508 1507 1507 1509 1508 1501 1502 1506 1501 1497 1501 1503 1504 1506 1505 1504 1506 1506 1507 1507 1508 1508 1509 1509
1459 1460 1460 1461 1464 1464 1465 1465 1465 1468 1469 1470 1470 1470 1471 1473 1474 1475 1475 1475 1476 1476 1478 1480 1479 1479 1480 1482 1485 1485 1485 1487 1488 1487 1488 1490 1492 1493 1494 1494 1494 1493 1494 1495 1494 1495 1499 1499 1498 1500 1500 1501 1504 1504 1503 1504 1503 1502 1502 1500 1501 1506 1508 1508 1508 1505 1504 1504 1500 1495 1499 1502 1498 1495 1499 1500 1501 1502 1502 1503 1504 1504 1504 1504 1505 1506 1506 1507
1456 1458 1458 1460 1460 1460 1461 1461 1463 1466 1468 1469 1469 1468 1468 1470 1471 1472 1472 1474 1476 1474 1476 1477 1475 1475 1478 1480 1481 1482 1482 1484 1485 1484 1486 1489 1492 1493 1492 1493 1494 1493 1494 1495 1494 1495 1498 1497 1499 1502 1501 1502 1506 1507 1505 1506 1506 1504 1502 1500 1500 1504 1507 1508 1507 1504 1503 1503 1500 1499 1503 1501 1495 1495 1498 1500 1500 1501 1502 1502 1501 1501 1501 1502 1503 1504 1504 1504
1453 1454 1455 1458 1459 1459 1459 1460 1462 1465 1466 1469 1468 1464 1464 1467 1467 1468 1469 1470 1472 1473 1473 1474 1472 1473 1477 1478 1477 1477 1475 1476 1479 1481 1484 1487 1490 1492 1491 1489 1490 1493 1494 1494 1495 1496 1497 1498 1500 1502 1502 1504 1507 1508 1509 1510 1509 1507 1504 1499 1500 1506 1508 1507 1505 1504 1507 1507 1504 1505 1508 1501 1492 1493 1497 1499 1499 1500 1500 1498 1497 1498 1500 1500 1501 1501 1500 1501
1450 1451 1453 1455 1457 1458 1459 1459 1461 1463 1465 1465 1463 1459 1462 1464 1462 1465 1467 1466 1467 1469 1470 1470 1470 1473 1476 1476 1475 1471 1470 1473 1476 1476 1479 1481 1483 1484 1485 1484 1485 1489 1492 1494 1494 1494 1496 1500 1502 1502 1503 1503 1505 1509 1511 1510 1512 1511 1503 1497 1501 1506 1503 1500 1502 1504 1504 1504 1504 1506 1507 1498 1490 1492 1496 1496 1496 1496 1495 1495 1495 1496 1497 1498 1497 1497 1497 1498
1449 1450 1451 1453 1454 1455 1456 1458 1460 1461 1459 1456 1456 1456 1458 1459 1459 1463 1467 1465 1464 1465 1467 1467 1469 1472 1475 1474 1471 1468 1469 1473 1474 1474 1476 1477 1477 1478 1479 1480 1482 1484 1488 1492 1494 1494 1495 1498 1500 1502 1503 1502 1505 1510 1509 1510 1513 1505 1491 1488 1494 1497 1495 1496 1499 1498 1496 1498 1502 1502 1497 1491 1490 1493 1495 1493 1493 1493 1493 1493 1494 1494 1494 1495 1494 1494 1495 1495